Вернуться в каталог

STARLINK-31258

АктивенСвязьVLEO
NORAD 58829·PAYLOAD·🇺🇸 United States

Запущен Jan 24, 2024 с Vandenberg Space Force Base

Loading…

Ближайшие Пролёты (ближайшие 24 часа)

TLE

СвежийSource: CelesTrak SupGP

Эпоха: Sep 14, 2026, 20:42 UTC

1 58829C 24017D   26257.86298611  .00025453  00000+0  75228-3 0  2571
2 58829  53.1591  43.7639 0001199  84.0005 354.2704 15.34366282    13

Отслеживайте STARLINK-31258 в реальном времени с AllMySat

Download on the App Store